SCP
1 0 0 0 0 1 0 0 1 0 0 0 0 0 0 0 0 0 0 0 0 1 1 1 1 1 1 1 1 1 1 1 0 0 0 0 0 0 1 1 1 1 1 1 1 1 1 1 1
1 0 0 0 0 1 1 1 1 0 0 0 0 0 0 0 0 1 1 1 1 1 1 1 1 1 1 1 1 1 1 0 0 0 0 0 0 1 1 1 1 1 1 1 1 1 1 1 1
1 0 0 0 0 1 1 1 1 0 0 0 1 0 0 0 0 1 1 1 1 1 2 2 2 1 1 1 1 1 0 0 0 0 0 0 0 1 1 1 1 1 1 1 1 1 1 1 1
1 1 1 0 0 1 1 1 1 0 1 1 1 1 1 1 1 1 1 1 1 2 2 2 2 2 1 1 1 1 0 0 0 0 0 0 0 1 1 1 1 1 1 1 1 1 1 1 1
2 1 1 0 0 1 1 1 0 0 1 1 1 1 1 1 1 1 1 1 2 2 2 2 2 2 1 1 1 1 0 0 0 0 0 0 0 1 1 1 1 1 1 1 1 1 1 1 1
2 1 1 0 0 0 1 1 0 0 1 1 0 1 1 2 1 1 2 2 2 2 2 2 2 1 1 1 1 0 0 0 0 0 0 0 0 0 1 1 1 1 1 1 1 1 1 1 1
1 1 0 0 0 0 0 0 0 1 1 1 0 1 1 2 2 2 3 3 2 2 1 1 1 1 1 0 0 0 0 0 0 0 0 0 0 0 0 0 1 1 1 1 1 1 1 1 1
1 1 0 0 0 0 0 0 0 1 1 1 1 1 2 2 2 3 3 2 1 1 1 0 0 0 0 0 0 0 0 0 0 0 0 0 0 0 0 0 0 0 1 1 1 1 1 1 1
1 1 0 0 0 0 0 0 0 0 0 1 1 1 2 2 2 2 2 1 0 0 0 0 0 0 0 0 0 0 0 0 0 0 0 0 0 0 0 0 0 0 1 1 1 1 1 1 1
1 0 0 0 0 0 0 0 0 0 1 1 1 1 1 1 1 1 1 0 0 0 0 0 0 0 0 0 0 0 0 0 0 0 0 0 0 0 0 0 0 0 0 1 1 1 1 1 1
0 0 0 0 0 0 0 0 0 0 1 1 1 1 1 1 1 0 0 0 0 0 0 0 0 0 0 0 0 0 0 0 0 0 0 0 0 0 0 0 0 0 0 0 0 0 1 1 0
0 0 0 0 0 0 0 0 0 1 1 1 1 1 1 0 0 0 0 0 0 0 0 0 0 0 0 0 0 0 0 0 0 0 0 0 0 0 0 0 0 0 0 0 0 0 0 1 1
0 0 0 0 0 0 0 0 0 1 1 1 1 1 1 0 0 0 0 0 0 0 0 0 0 0 0 0 0 0 0 0 0 0 0 0 0 0 0 0 0 0 0 0 0 0 0 1 1
0 0 0 0 0 0 0 0 0 1 1 1 1 1 0 0 0 0 0 0 0 0 0 0 0 0 0 0 0 0 0 0 0 0 0 0 0 0 0 0 0 0 0 0 0 0 0 1 1
0 0 0 0 0 0 0 0 0 1 1 1 1 0 0 0 0 0 0 0 0 0 0 0 0 0 0 0 0 0 0 0 0 0 0 0 0 0 0 0 0 0 0 0 0 0 0 1 1
0 0 0 0 0 0 0 0 0 0 1 1 0 0 0 0 0 0 0 0 0 0 0 0 0 0 1 1 0 0 0 0 0 0 0 0 0 0 0 0 0 0 0 0 0 0 0 1 1
0 0 0 0 0 0 0 0 0 0 0 0 0 0 0 0 0 0 0 0 0 0 0 0 0 1 1 1 1 0 0 0 0 0 0 0 0 0 0 0 0 0 0 0 0 0 0 1 1
0 0 0 0 0 0 0 0 0 0 0 0 0 0 0 0 0 0 0 0 0 0 0 0 0 0 1 1 1 0 0 0 0 0 0 0 0 0 0 0 0 0 0 0 0 0 0 1 1
0 0 0 0 0 0 0 0 0 0 0 0 0 0 0 0 0 0 0 0 0 0 0 0 0 0 0 1 0 0 0 0 0 0 0 0 0 0 0 0 0 0 0 0 0 0 0 0 1
0 0 0 0 0 0 0 0 0 0 0 0 0 0 0 0 0 0 0 0 0 0 0 0 0 0 0 0 0 0 0 0 0 0 0 0 0 0 0 0 0 0 0 0 0 0 0 0 1
0 0 0 0 0 0 0 0 0 0 0 0 0 0 0 0 0 0 0 0 0 0 0 0 0 0 0 0 0 0 0 0 0 0 0 0 0 0 0 0 0 0 0 0 0 0 0 0 0
0 0 0 0 0 0 0 0 0 0 0 0 0 0 0 0 0 0 0 0 0 0 0 0 0 0 0 0 0 0 0 0 0 0 0 0 0 0 0 0 0 0 0 0 0 0 0 0 0
0 0 0 0 0 0 0 0 0 0 0 0 0 0 0 0 0 0 0 0 0 0 0 0 0 0 0 0 0 0 0 0 0 0 0 0 0 0 0 0 0 0 0 0 0 0 0 0 0
0 0 0 0 0 0 0 0 0 0 0 0 0 0 0 0 0 0 0 0 0 0 0 0 0 0 0 0 0 0 0 0 0 0 0 0 0 0 0 0 0 0 0 0 0 0 0 0 0
0 0 0 0 0 0 0 0 0 0 0 0 0 0 0 0 0 0 0 0 0 0 0 0 0 0 0 0 0 0 0 0 0 0 0 0 0 0 0 0 0 0 0 0 0 0 0 0 0
0 0 0 0 0 0 0 0 0 0 0 0 0 0 0 0 0 0 1 1 0 0 0 0 0 0 0 0 0 0 0 0 0 0 0 0 0 0 0 0 0 0 0 0 0 0 0 0 0
0 0 0 0 0 0 0 0 0 0 0 0 0 0 0 0 0 0 1 1 1 0 0 0 0 0 0 0 0 0 0 0 0 0 0 0 0 0 0 0 0 0 0 0 0 0 0 0 0
0 0 0 0 0 0 0 0 0 0 0 0 0 0 0 0 0 0 0 1 1 0 0 0 0 0 0 0 0 0 0 0 0 0 0 0 0 0 0 0 0 0 0 0 0 0 0 0 0
0 0 0 0 0 0 0 0 0 0 0 0 0 0 0 0 0 0 0 1 1 0 0 0 0 0 0 0 0 0 0 0 0 0 0 0 0 0 0 0 0 0 0 0 0 0 0 0 0
0 0 0 0 0 0 0 0 0 0 0 0 0 0 0 0 0 0 0 1 1 0 0 0 0 0 0 0 0 0 0 0 0 0 0 0 0 0 0 0 0 0 0 0 0 0 0 0 0
Wind_Speed
7 5 2 2 3 2 2 3 1 1 2 3 3 2 3 4 4 5 5 6 9 10 10 10 9 8 8 8 7 7 7 7 6 5 4 4 4 3 2 1 1 1 2 2 2 2 3 2 2
5 4 3 3 3 1 4 3 2 2 3 3 2 2 3 5 5 7 6 7 9 10 9 9 9 8 8 7 7 7 7 7 6 5 5 4 4 3 2 1 1 1 2 2 3 3 4 3 3
5 2 3 2 2 1 3 3 3 4 3 2 3 3 4 5 5 6 7 10 10 9 9 10 8 8 8 7 7 7 7 6 6 5 5 4 4 3 3 3 3 3 3 3 3 4 4 4 4
3 3 3 3 1 2 2 3 3 4 4 2 2 5 5 4 3 7 11 11 10 10 9 10 8 8 8 8 7 7 6 6 6 5 5 5 4 3 3 3 3 3 4 4 4 4 4 5 5
3 3 3 3 1 2 2 2 3 3 3 3 2 5 6 5 7 11 11 10 10 9 8 10 8 8 7 7 7 6 6 5 5 5 5 4 4 4 4 4 4 4 4 4 4 4 4 5 5
3 3 3 2 3 2 3 2 2 2 3 4 3 5 6 6 9 10 10 9 9 9 8 9 9 7 6 6 6 5 5 4 4 4 4 4 4 5 4 4 4 4 4 4 5 4 5 4 4
3 3 2 1 2 3 3 2 2 2 3 4 2 4 7 9 9 10 10 9 9 8 7 6 7 8 7 5 5 4 4 4 4 4 4 4 4 4 4 4 4 4 5 5 5 4 4 4 4
3 3 2 2 2 3 3 3 2 1 3 4 1 3 7 10 11 10 9 8 8 7 6 5 5 4 5 6 5 4 4 4 4 3 4 3 1 0 1 2 3 4 5 6 5 4 4 5 4
3 4 2 1 1 3 3 2 3 2 4 4 2 4 8 14 13 11 9 8 7 6 5 4 4 4 3 3 4 3 3 3 1 2 2 3 3 2 1 5 6 5 5 5 5 4 4 5 4
4 3 1 1 1 1 2 1 2 3 4 5 6 8 11 13 13 11 10 9 7 6 4 3 3 3 3 2 2 1 1 1 1 2 2 2 3 3 4 2 1 3 4 4 2 4 5 7 3
4 2 1 1 1 1 1 1 1 2 2 4 8 11 13 13 11 10 9 7 6 5 4 3 2 2 1 1 0 0 1 1 1 3 2 3 3 2 2 2 1 2 4 4 2 5 4 4 2
3 1 1 1 1 2 2 1 1 2 1 3 7 12 13 13 11 10 8 7 6 4 3 2 2 2 2 1 1 0 1 1 2 2 4 3 3 3 3 3 3 3 3 3 4 3 4 4 4
4 2 1 2 2 2 2 2 2 1 2 5 9 11 12 11 10 9 7 7 6 5 4 3 2 1 1 1 0 0 1 2 2 2 3 4 3 4 3 3 3 4 3 3 3 4 4 4 4
2 2 2 2 3 3 3 3 3 3 6 9 10 11 11 10 10 9 8 7 6 5 4 4 3 2 1 1 1 0 1 1 2 2 3 4 3 3 4 4 3 4 4 4 4 4 4 3 3
3 4 4 3 4 3 4 4 4 5 8 9 10 10 9 9 9 9 8 6 6 5 5 4 3 2 2 1 1 0 0 1 2 2 3 4 4 4 4 4 4 4 4 4 4 4 4 3 3
5 5 5 4 4 4 6 3 5 6 8 9 9 9 9 9 9 8 7 6 5 5 5 4 3 3 2 1 1 0 0 1 1 2 2 4 4 5 4 4 4 4 4 3 3 4 3 3 3
6 5 4 4 3 3 5 3 5 5 7 8 8 9 9 9 9 8 7 6 6 6 5 5 4 3 2 1 1 0 0 0 1 1 2 4 4 5 4 4 4 4 3 3 3 2 3 3 2
5 4 3 3 3 3 4 3 4 5 6 7 7 8 9 9 8 7 7 6 6 6 6 5 4 3 3 2 1 1 0 0 1 2 2 4 4 4 4 3 4 4 3 3 3 3 3 3 3
1 2 3 3 2 3 3 3 4 5 6 7 8 8 8 8 7 7 7 7 7 7 7 6 5 4 3 2 2 1 1 0 0 1 3 3 4 4 4 4 4 4 3 4 4 3 2 2 2
2 3 4 4 2 3 2 2 3 4 6 6 7 8 8 7 7 7 7 7 8 7 7 7 6 5 4 2 1 0 1 1 1 1 1 3 3 4 4 4 4 3 3 3 3 2 3 2 2
2 2 2 2 2 3 3 4 4 5 5 5 6 7 7 7 7 8 8 8 8 8 7 6 6 6 4 3 2 1 1 1 1 1 1 2 3 3 4 4 4 4 3 2 3 3 3 2 2
2 1 1 2 4 3 2 3 5 4 5 5 5 6 7 7 7 7 8 8 8 8 7 7 7 6 5 5 3 2 1 2 2 2 1 2 2 3 3 4 4 3 3 3 3 2 2 3 2
2 1 1 2 3 4 1 2 7 4 3 3 4 5 5 6 6 7 7 7 7 7 7 7 7 6 6 5 4 3 2 2 1 2 2 2 1 2 3 4 3 3 2 3 3 2 2 2 3
4 4 4 3 4 4 2 1 5 4 4 3 2 2 3 4 5 6 6 6 6 7 7 7 7 6 5 5 5 4 3 2 2 2 2 2 1 2 2 3 3 3 3 3 3 2 2 2 2
5 5 5 6 4 5 2 0 5 6 5 3 2 2 2 3 4 5 6 7 7 8 8 7 8 7 6 6 5 5 4 4 3 3 2 3 2 2 2 3 3 3 3 3 3 2 2 2 2
2 4 1 2 4 6 3 3 6 5 4 3 2 3 3 3 3 4 5 6 7 8 8 8 8 7 6 6 5 5 4 3 3 3 3 3 2 2 3 3 3 3 3 3 2 2 2 2 2
2 1 3 1 4 4 5 5 6 5 4 5 5 4 3 2 2 2 3 5 6 7 8 8 8 7 7 7 6 5 5 4 4 4 4 3 3 2 3 3 2 2 3 2 2 2 2 2 2
3 1 3 2 3 5 5 4 3 4 4 4 4 4 3 2 2 2 2 3 5 5 6 6 7 7 7 6 6 4 5 5 4 4 4 4 3 2 3 3 3 2 2 2 2 2 2 2 2
3 3 1 1 1 1 4 5 5 3 4 3 3 3 3 2 2 1 1 1 3 4 5 6 6 6 6 7 6 6 5 5 5 5 4 4 4 3 3 3 3 2 2 2 1 2 2 2 2
1 1 2 1 3 1 2 6 5 3 4 3 3 3 3 3 2 2 2 1 1 3 4 5 6 6 6 6 6 6 5 5 5 5 5 5 4 4 4 3 3 2 2 2 2 2 2 2 2
Wind_Direction
154 153 172 224 231 213 86 85 82 103 79 61 55 53 62 44 19 62 95 132 127 129 127 131 122 117 112 110 106 102 97 93 90 86 91 97 95 94 86 73 65 22 7 3 2 356 350 352 351
148 162 210 241 260 163 92 96 105 80 92 110 103 82 84 74 60 94 119 126 132 129 128 121 120 117 113 109 104 97 91 85 81 76 76 76 76 72 68 46 31 2 344 348 353 347 340 336 341
151 216 249 246 259 30 80 95 100 106 119 134 103 65 54 74 96 105 120 136 134 127 123 116 123 117 110 104 98 93 89 84 79 71 63 58 55 51 42 25 6 358 348 342 341 338 332 330 330
181 209 230 238 144 61 62 100 126 133 129 108 117 102 85 66 88 111 130 138 132 128 124 117 121 113 107 101 96 91 85 78 73 65 56 47 41 30 20 6 358 353 348 346 342 341 330 324 326
224 238 221 203 119 90 85 93 146 145 129 127 133 108 99 89 104 124 134 137 131 125 122 120 115 110 106 102 96 89 80 73 67 59 49 38 28 19 8 359 351 346 341 342 343 342 336 326 318
216 238 234 180 109 104 106 125 163 132 120 130 134 109 95 115 127 132 135 135 127 125 124 120 118 112 108 104 96 86 75 66 58 48 39 29 20 14 4 356 352 348 344 339 336 338 334 328 320
251 247 251 155 117 119 100 127 148 131 118 110 117 109 113 131 133 137 136 132 127 126 127 127 130 133 125 106 89 79 69 59 48 36 26 17 13 10 5 355 351 345 341 335 331 334 329 327 320
272 258 218 175 148 105 109 132 96 93 96 101 148 123 130 138 141 139 137 135 132 131 131 129 125 130 132 131 107 76 63 56 47 41 24 3 313 246 332 309 7 338 336 336 331 322 318 314 309
237 244 221 154 138 100 130 142 99 115 123 122 96 75 115 136 145 147 146 146 143 141 137 136 135 128 124 116 111 136 122 95 193 146 98 277 303 332 275 28 9 344 339 338 339 330 316 295 256
223 239 232 61 29 81 135 116 109 169 153 140 128 117 130 146 156 158 158 155 153 150 144 142 149 148 150 120 131 164 115 98 324 358 7 328 341 341 330 84 351 339 322 285 316 307 266 260 261
223 248 107 107 96 125 158 150 194 216 169 148 144 142 149 157 163 163 159 153 149 146 143 152 165 153 156 147 115 51 25 29 345 359 359 335 325 313 312 314 258 287 285 294 285 266 277 289 297
211 199 199 143 149 173 162 195 220 257 66 106 137 145 154 165 169 170 166 160 159 158 163 168 184 172 175 145 117 284 340 353 7 358 343 337 338 324 337 317 332 317 317 316 301 294 292 289 282
206 169 155 167 181 186 184 210 255 232 169 142 143 154 161 167 169 170 168 170 174 176 175 177 194 186 159 139 200 276 8 351 11 1 336 341 331 329 333 319 326 314 314 301 299 292 302 293 295
170 172 180 184 179 184 197 208 208 173 161 155 159 164 168 171 174 174 179 183 184 181 176 173 187 190 209 196 193 11 26 14 344 356 338 334 335 327 327 322 325 319 313 312 300 294 294 285 286
174 178 181 185 185 176 199 202 190 167 167 165 168 168 172 179 182 191 188 190 186 182 178 173 182 192 204 192 94 18 330 342 353 357 337 339 341 327 329 326 322 319 313 303 298 299 291 286 279
189 199 187 157 179 182 214 178 140 161 172 171 173 169 178 186 193 197 195 197 189 185 179 167 179 197 189 172 178 212 354 1 4 358 342 338 341 340 335 326 326 323 314 306 302 296 292 287 286
191 193 171 149 173 186 215 170 130 166 182 179 180 178 183 188 197 198 201 201 192 187 183 177 176 183 163 152 176 213 21 8 355 353 350 343 345 338 330 332 328 326 317 309 301 299 298 295 291
173 173 161 150 148 201 209 192 163 172 190 191 186 185 185 191 195 191 193 194 191 188 186 183 166 172 154 165 182 155 181 290 359 2 4 353 341 343 336 326 332 329 319 314 303 299 290 294 284
166 170 144 114 133 221 221 213 202 185 196 197 193 191 191 193 185 180 183 187 188 187 188 180 177 165 166 171 196 201 197 280 342 2 3 347 344 343 334 325 337 328 330 322 312 297 275 275 276
183 162 133 125 137 236 238 219 191 192 203 208 205 199 197 192 186 179 183 187 190 185 186 182 181 172 176 173 195 252 320 294 344 328 336 342 344 342 329 329 326 333 326 319 313 303 289 278 274
188 180 137 133 168 205 241 167 152 157 184 194 210 209 207 201 201 188 188 192 190 189 184 184 181 173 171 169 168 169 186 239 226 276 323 335 330 336 333 332 329 328 319 327 309 293 277 279 270
149 103 206 206 204 146 258 131 122 135 164 183 196 199 204 201 203 192 190 192 192 189 181 185 182 178 173 179 193 216 257 291 316 309 322 306 313 326 332 329 327 324 324 321 310 311 288 275 262
84 117 206 212 199 158 147 142 103 111 130 152 180 193 198 198 201 193 193 192 189 181 179 184 182 182 181 192 192 227 252 290 302 294 305 303 328 320 331 325 325 324 321 322 320 312 290 274 276
143 158 152 187 202 142 75 100 94 74 44 58 107 156 185 189 189 190 185 182 182 176 177 182 185 185 189 199 205 223 246 268 281 285 299 293 306 310 337 327 326 326 325 319 311 296 282 283 278
215 210 176 172 165 109 81 82 75 49 21 10 37 95 129 165 178 185 184 182 182 181 182 185 188 189 192 203 214 225 234 252 262 279 280 290 304 308 334 330 332 336 327 319 311 293 293 271 266
203 269 286 144 134 122 143 102 78 46 32 40 68 92 104 134 163 181 188 185 186 187 188 191 193 195 194 205 217 229 228 242 261 268 281 286 299 314 326 325 339 337 328 311 306 292 287 276 257
176 136 348 71 122 129 116 116 102 66 68 71 79 87 96 111 136 160 176 182 188 191 193 197 197 198 200 207 215 227 236 237 251 257 265 276 284 300 308 316 327 335 330 314 301 294 287 287 288
349 115 212 218 150 129 122 104 75 57 51 54 60 67 74 82 103 126 161 182 188 189 191 195 203 204 207 210 215 218 230 229 241 255 256 264 277 284 285 299 317 325 327 316 305 298 307 279 270
155 163 156 102 341 181 133 97 47 44 38 33 44 53 57 56 67 88 120 156 177 183 186 192 201 208 209 212 215 220 223 227 232 242 249 255 263 266 270 282 300 314 316 312 290 286 292 285 276
336 10 270 218 114 33 114 96 69 41 35 32 40 43 41 37 43 63 84 112 161 188 196 199 204 209 211 214 218 223 227 223 231 238 244 248 255 259 264 274 286 294 294 297 302 299 286 280 285